TimeMST,TemperatureF,Dew PointF,Humidity,Sea Level PressureIn,VisibilityMPH,Wind Direction,Wind SpeedMPH,Gust SpeedMPH,PrecipitationIn,Events,Conditions,WindDirDegrees,DateUTC
12:19 AM,19.4,17.6,93,30.06,2.0,Calm,Calm,-,N/A,,Overcast,0,2013-01-08 07:19:00
12:53 AM,19.0,17.1,92,30.22,2.5,ENE,3.5,-,N/A,,Overcast,60,2013-01-08 07:53:00
1:50 AM,19.4,17.6,93,30.07,1.8,Calm,Calm,-,N/A,,Overcast,0,2013-01-08 08:50:00
1:51 AM,19.0,18.0,96,30.23,1.8,Calm,Calm,-,N/A,,Overcast,0,2013-01-08 08:51:00
2:16 AM,19.4,17.6,93,30.08,2.0,Calm,Calm,-,N/A,,Overcast,0,2013-01-08 09:16:00
2:45 AM,19.4,17.6,93,30.09,1.8,Calm,Calm,-,N/A,,Overcast,0,2013-01-08 09:45:00
2:53 AM,19.0,18.0,96,30.25,1.8,NE,3.5,-,N/A,,Overcast,40,2013-01-08 09:53:00
3:11 AM,19.4,17.6,93,30.10,2.0,Calm,Calm,-,N/A,,Overcast,0,2013-01-08 10:11:00
3:20 AM,19.4,17.6,93,30.09,1.8,Calm,Calm,-,N/A,,Overcast,0,2013-01-08 10:20:00
3:53 AM,19.9,19.0,96,30.25,1.8,Calm,Calm,-,N/A,,Overcast,0,2013-01-08 10:53:00
4:04 AM,19.4,19.4,100,30.10,2.0,Calm,Calm,-,N/A,,Overcast,0,2013-01-08 11:04:00
4:13 AM,19.4,19.4,100,30.09,1.8,Calm,Calm,-,N/A,,Overcast,0,2013-01-08 11:13:00
4:22 AM,19.4,17.6,93,30.10,2.0,Calm,Calm,-,N/A,,Overcast,0,2013-01-08 11:22:00
4:31 AM,19.4,19.4,100,30.10,1.8,Calm,Calm,-,N/A,,Overcast,0,2013-01-08 11:31:00
4:53 AM,19.0,17.1,92,30.26,1.5,Calm,Calm,-,N/A,,Overcast,0,2013-01-08 11:53:00
5:53 AM,18.0,16.0,92,30.27,1.2,Calm,Calm,-,N/A,,Overcast,0,2013-01-08 12:53:00
6:53 AM,18.0,17.1,96,30.30,1.5,WNW,3.5,-,N/A,,Overcast,290,2013-01-08 13:53:00
7:53 AM,18.0,17.1,96,30.30,1.5,Calm,Calm,-,N/A,,Overcast,0,2013-01-08 14:53:00
8:32 AM,19.4,17.6,93,30.16,0.8,Calm,Calm,-,N/A,,Overcast,0,2013-01-08 15:32:00
8:42 AM,17.6,17.6,100,30.16,1.0,Calm,Calm,-,N/A,,Overcast,0,2013-01-08 15:42:00
8:53 AM,18.0,17.1,96,30.34,1.0,Calm,Calm,-,N/A,,Overcast,0,2013-01-08 15:53:00
9:35 AM,17.6,17.6,100,30.19,0.8,Calm,Calm,-,N/A,,Overcast,0,2013-01-08 16:35:00
9:53 AM,19.0,17.1,92,30.36,1.0,Calm,Calm,-,N/A,,Overcast,0,2013-01-08 16:53:00
10:53 AM,19.9,19.0,96,30.36,1.0,Calm,Calm,-,N/A,,Overcast,0,2013-01-08 17:53:00
11:53 AM,21.0,19.9,96,30.35,1.0,Calm,Calm,-,N/A,,Overcast,0,2013-01-08 18:53:00
12:37 PM,21.2,19.4,93,30.21,1.2,Calm,Calm,-,N/A,,Overcast,0,2013-01-08 19:37:00
12:53 PM,21.9,21.0,96,30.34,1.0,Calm,Calm,-,N/A,,Overcast,0,2013-01-08 19:53:00
1:53 PM,23.0,21.0,92,30.34,1.0,WSW,4.6,-,N/A,,Overcast,250,2013-01-08 20:53:00
2:53 PM,23.0,21.9,96,30.35,0.8,WSW,3.5,-,N/A,,Overcast,240,2013-01-08 21:53:00
3:53 PM,24.1,21.9,91,30.36,0.8,West,3.5,-,N/A,,Overcast,260,2013-01-08 22:53:00
4:01 PM,24.8,21.2,86,30.22,1.0,WSW,3.5,-,N/A,,Overcast,240,2013-01-08 23:01:00
4:26 PM,24.8,23.0,93,30.23,0.8,SW,4.6,-,N/A,,Overcast,220,2013-01-08 23:26:00
4:53 PM,24.1,23.0,96,30.38,0.8,Calm,Calm,-,N/A,,Overcast,0,2013-01-08 23:53:00
5:11 PM,24.8,23.0,93,30.24,1.5,Calm,Calm,-,0.01,,Overcast,0,2013-01-09 00:11:00
5:30 PM,24.8,21.2,86,30.24,2.0,Calm,Calm,-,0.01,,Overcast,0,2013-01-09 00:30:00
5:53 PM,24.1,23.0,96,30.38,2.0,Calm,Calm,-,0.01,Snow,Light Snow,0,2013-01-09 00:53:00
6:02 PM,24.8,21.2,86,30.24,3.0,Calm,Calm,-,0.00,,Overcast,0,2013-01-09 01:02:00
6:28 PM,24.8,23.0,93,30.24,4.0,Calm,Calm,-,0.00,,Overcast,0,2013-01-09 01:28:00
6:53 PM,24.1,21.9,91,30.39,5.0,NE,3.5,-,0.00,,Overcast,40,2013-01-09 01:53:00
7:53 PM,25.0,23.0,92,30.40,2.5,Calm,Calm,-,0.00,Snow,Light Snow,0,2013-01-09 02:53:00
8:11 PM,24.8,23.0,93,30.27,4.0,NNE,3.5,-,0.00,Snow,Light Snow,20,2013-01-09 03:11:00
8:34 PM,24.8,23.0,93,30.27,2.0,Calm,Calm,-,0.00,Snow,Light Snow,0,2013-01-09 03:34:00
8:48 PM,24.8,23.0,93,30.27,1.8,Calm,Calm,-,0.00,Snow,Light Snow,0,2013-01-09 03:48:00
8:53 PM,25.0,23.0,92,30.42,2.0,Calm,Calm,-,0.01,Snow,Light Snow,0,2013-01-09 03:53:00
9:14 PM,24.8,24.8,100,30.28,4.0,Calm,Calm,-,0.00,Snow,Light Snow,0,2013-01-09 04:14:00
10:32 PM,26.6,23.0,86,30.29,2.0,Calm,Calm,-,0.00,Snow,Light Snow,0,2013-01-09 05:32:00
10:41 PM,26.6,24.8,93,30.29,3.0,Calm,Calm,-,0.00,Snow,Light Snow,0,2013-01-09 05:41:00
10:53 PM,26.1,24.1,92,30.43,5.0,Calm,Calm,-,0.00,,Overcast,0,2013-01-09 05:53:00
11:01 PM,26.6,24.8,93,30.29,2.5,Calm,Calm,-,0.00,Snow,Light Snow,0,2013-01-09 06:01:00
11:13 PM,26.6,24.8,93,30.29,4.0,Calm,Calm,-,0.01,Snow,Light Snow,0,2013-01-09 06:13:00
11:37 PM,26.6,24.8,93,30.29,1.8,Calm,Calm,-,0.01,Snow,Light Snow,0,2013-01-09 06:37:00
11:53 PM,26.1,25.0,96,30.43,3.0,Calm,Calm,-,0.01,,Overcast,0,2013-01-09 06:53:00
11:59 PM,26.6,24.8,93,30.29,2.5,Calm,Calm,-,N/A,,Overcast,0,2013-01-09 06:59:00